Previsão horária em Barreiro do Jaíba

Hoje, 20 Outubro, Terça-feira

Tempo Temperatura Precipitação Vento Pressão Humidade
00:00 +25°C° 0.1 mm 3 m/s 719 mmHg 73%
01:00 +24°C° 0 mm 3 m/s 719 mmHg 75%
02:00 +24°C° 0 mm 2 m/s 718 mmHg 77%
03:00 +23°C° 0 mm 2 m/s 718 mmHg 77%
04:00 +23°C° 0 mm 1 m/s 718 mmHg 77%
05:00 +23°C° 0 mm 1 m/s 719 mmHg 77%
06:00 +23°C° 0 mm 1 m/s 719 mmHg 78%
07:00 +25°C° 0 mm 2 m/s 720 mmHg 68%
08:00 +27°C° 0 mm 2 m/s 720 mmHg 59%
09:00 +29°C° 0 mm 2 m/s 721 mmHg 50%
10:00 +32°C° 0 mm 2 m/s 721 mmHg 44%
11:00 +35°C° 0 mm 2 m/s 720 mmHg 39%
12:00 +36°C° 0 mm 1 m/s 720 mmHg 33%
13:00 +36°C° 0 mm 1 m/s 719 mmHg 32%
14:00 +36°C° 0 mm 1 m/s 719 mmHg 32%
15:00 +36°C° 0 mm 1 m/s 718 mmHg 31%
16:00 +35°C° 0.1 mm 2 m/s 718 mmHg 39%
17:00 +31°C° 0.1 mm 3 m/s 718 mmHg 47%
18:00 +29°C° 0.1 mm 4 m/s 718 mmHg 55%
19:00 +28°C° 0.1 mm 4 m/s 718 mmHg 61%
20:00 +27°C° 0.1 mm 4 m/s 719 mmHg 67%
21:00 +25°C° 0.1 mm 4 m/s 719 mmHg 72%
22:00 +25°C° 0.1 mm 4 m/s 719 mmHg 72%
23:00 +25°C° 0.1 mm 3 m/s 719 mmHg 71%

Amanhã, 21 Outubro, Quarta-feira

Tempo Temperatura Precipitação Vento Pressão Humidade
00:00 +25°C° 0.1 mm 3 m/s 719 mmHg 71%
01:00 +25°C° 0.2 mm 3 m/s 719 mmHg 74%
02:00 +24°C° 0.2 mm 2 m/s 719 mmHg 77%
03:00 +24°C° 0.2 mm 2 m/s 719 mmHg 80%
04:00 +24°C° 0.3 mm 2 m/s 719 mmHg 81%
05:00 +24°C° 0.3 mm 2 m/s 719 mmHg 82%
06:00 +24°C° 0.3 mm 2 m/s 719 mmHg 83%
07:00 +25°C° 0 mm 2 m/s 720 mmHg 78%
08:00 +26°C° 0 mm 2 m/s 720 mmHg 72%
09:00 +27°C° 0 mm 2 m/s 720 mmHg 66%
10:00 +30°C° 0 mm 2 m/s 720 mmHg 57%
11:00 +32°C° 0 mm 2 m/s 720 mmHg 49%
12:00 +36°C° 0 mm 2 m/s 719 mmHg 40%
13:00 +35°C° 0 mm 1 m/s 719 mmHg 37%
14:00 +36°C° 0 mm 1 m/s 718 mmHg 34%
15:00 +35°C° 0 mm 0 m/s 717 mmHg 32%
16:00 +35°C° 0 mm 1 m/s 717 mmHg 36%
17:00 +34°C° 0 mm 1 m/s 717 mmHg 39%
18:00 +32°C° 0 mm 1 m/s 717 mmHg 43%
19:00 +30°C° 0.5 mm 2 m/s 717 mmHg 52%
20:00 +29°C° 0.5 mm 2 m/s 718 mmHg 61%
21:00 +27°C° 0.5 mm 3 m/s 718 mmHg 69%
22:00 +27°C° 0.3 mm 2 m/s 718 mmHg 72%
23:00 +26°C° 0.3 mm 2 m/s 718 mmHg 74%

Depois de amanhã, 22 Outubro, Quinta-feira

Tempo Temperatura Precipitação Vento Pressão Humidade
00:00 +26°C° 0.3 mm 2 m/s 718 mmHg 76%
01:00 +26°C° 0.4 mm 2 m/s 718 mmHg 78%
02:00 +25°C° 0.4 mm 1 m/s 717 mmHg 79%
03:00 +25°C° 0.4 mm 1 m/s 717 mmHg 80%
04:00 +25°C° 0.6 mm 1 m/s 717 mmHg 82%
05:00 +25°C° 0.6 mm 2 m/s 718 mmHg 83%
06:00 +24°C° 0.6 mm 2 m/s 718 mmHg 85%
07:00 +25°C° 0.2 mm 2 m/s 719 mmHg 83%
08:00 +25°C° 0.2 mm 1 m/s 719 mmHg 81%
09:00 +26°C° 0.2 mm 1 m/s 720 mmHg 79%
10:00 +26°C° 0.1 mm 1 m/s 720 mmHg 73%
11:00 +27°C° 0.1 mm 2 m/s 719 mmHg 68%
12:00 +28°C° 0.1 mm 2 m/s 719 mmHg 63%
13:00 +29°C° 0 mm 2 m/s 719 mmHg 58%
14:00 +30°C° 0 mm 2 m/s 718 mmHg 52%
15:00 +32°C° 0 mm 2 m/s 718 mmHg 47%
16:00 +30°C° 0.3 mm 1 m/s 718 mmHg 56%
17:00 +28°C° 0.3 mm 1 m/s 718 mmHg 64%
18:00 +24°C° 0.3 mm 0 m/s 718 mmHg 73%
19:00 +24°C° 0.1 mm 0 m/s 718 mmHg 74%
20:00 +26°C° 0.1 mm 1 m/s 718 mmHg 75%
21:00 +26°C° 0.1 mm 1 m/s 719 mmHg 76%
22:00 +25°C° 0 mm 1 m/s 718 mmHg 76%
23:00 +25°C° 0 mm 2 m/s 718 mmHg 76%

23 Outubro, Sexta-feira

Tempo Temperatura Precipitação Vento Pressão Humidade
00:00 +25°C° 0 mm 2 m/s 718 mmHg 76%
01:00 +25°C° 0 mm 2 m/s 718 mmHg 74%
02:00 +24°C° 0 mm 3 m/s 717 mmHg 73%
03:00 +24°C° 0 mm 3 m/s 717 mmHg 72%
04:00 +24°C° 0.1 mm 3 m/s 718 mmHg 73%
05:00 +24°C° 0.1 mm 3 m/s 718 mmHg 73%
06:00 +24°C° 0.1 mm 2 m/s 719 mmHg 73%
07:00 +24°C° 0.1 mm 2 m/s 719 mmHg 70%
08:00 +25°C° 0.1 mm 2 m/s 720 mmHg 67%
09:00 +25°C° 0.1 mm 2 m/s 720 mmHg 64%
10:00 +26°C° 0 mm 2 m/s 720 mmHg 62%
11:00 +26°C° 0 mm 2 m/s 719 mmHg 60%
12:00 +27°C° 0 mm 2 m/s 719 mmHg 57%
13:00 +27°C° 0 mm 2 m/s 718 mmHg 57%
14:00 +28°C° 0 mm 1 m/s 718 mmHg 57%
15:00 +28°C° 0 mm 1 m/s 717 mmHg 56%
16:00 +27°C° 0 mm 1 m/s 717 mmHg 60%
17:00 +26°C° 0 mm 1 m/s 717 mmHg 63%
18:00 +26°C° 0 mm 1 m/s 717 mmHg 66%
19:00 +26°C° 0 mm 1 m/s 718 mmHg 66%
20:00 +25°C° 0 mm 1 m/s 718 mmHg 67%
21:00 +25°C° 0 mm 1 m/s 718 mmHg 67%
22:00 +25°C° 0 mm 1 m/s 718 mmHg 68%
23:00 +25°C° 0 mm 1 m/s 718 mmHg 70%

24 Outubro, Sábado

Tempo Temperatura Precipitação Vento Pressão Humidade
00:00 +25°C° 0 mm 1 m/s 717 mmHg 71%
01:00 +24°C° 0 mm 2 m/s 717 mmHg 74%
02:00 +24°C° 0 mm 2 m/s 717 mmHg 77%
03:00 +23°C° 0 mm 2 m/s 717 mmHg 80%
04:00 +23°C° 0 mm 2 m/s 717 mmHg 79%
05:00 +23°C° 0 mm 2 m/s 718 mmHg 79%
06:00 +23°C° 0 mm 2 m/s 718 mmHg 79%
07:00 +25°C° 0 mm 2 m/s 719 mmHg 70%
08:00 +26°C° 0 mm 3 m/s 719 mmHg 62%
09:00 +28°C° 0 mm 3 m/s 719 mmHg 54%
10:00 +29°C° 0 mm 3 m/s 719 mmHg 50%
11:00 +31°C° 0 mm 3 m/s 718 mmHg 46%
12:00 +33°C° 0 mm 3 m/s 718 mmHg 42%
13:00 +32°C° 0 mm 2 m/s 717 mmHg 42%
14:00 +32°C° 0 mm 2 m/s 716 mmHg 43%
15:00 +31°C° 0 mm 1 m/s 715 mmHg 43%
16:00 +31°C° 0 mm 1 m/s 715 mmHg 46%
17:00 +30°C° 0 mm 1 m/s 715 mmHg 48%
18:00 +29°C° 0 mm 1 m/s 715 mmHg 50%
19:00 +28°C° 0.2 mm 2 m/s 716 mmHg 55%
20:00 +27°C° 0.2 mm 2 m/s 716 mmHg 61%
21:00 +26°C° 0.2 mm 3 m/s 716 mmHg 66%
22:00 +26°C° 0.3 mm 2 m/s 716 mmHg 70%
23:00 +25°C° 0.3 mm 2 m/s 716 mmHg 73%

25 Outubro, Domingo

Tempo Temperatura Precipitação Vento Pressão Humidade
00:00 +25°C° 0.3 mm 2 m/s 716 mmHg 76%
01:00 +24°C° 0.2 mm 1 m/s 716 mmHg 79%
02:00 +24°C° 0.2 mm 1 m/s 716 mmHg 82%
03:00 +24°C° 0.2 mm 1 m/s 715 mmHg 84%
04:00 +24°C° 0.4 mm 1 m/s 716 mmHg 86%
05:00 +23°C° 0.4 mm 2 m/s 716 mmHg 88%
06:00 +23°C° 0.4 mm 2 m/s 716 mmHg 90%
07:00 +23°C° 0.5 mm 2 m/s 717 mmHg 90%
08:00 +23°C° 0.5 mm 2 m/s 717 mmHg 89%
09:00 +23°C° 0.5 mm 2 m/s 717 mmHg 89%
10:00 +24°C° 0.5 mm 2 m/s 717 mmHg 87%
11:00 +24°C° 0.5 mm 2 m/s 717 mmHg 85%
12:00 +24°C° 0.5 mm 1 m/s 717 mmHg 84%
13:00 +25°C° 0.1 mm 1 m/s 716 mmHg 82%
14:00 +25°C° 0.1 mm 1 m/s 716 mmHg 81%
15:00 +24°C° 0.1 mm 0 m/s 715 mmHg 80%
16:00 +23°C° 0.5 mm 0 m/s 715 mmHg 83%
17:00 +22°C° 0.5 mm 0 m/s 715 mmHg 87%
18:00 +22°C° 0.5 mm 0 m/s 715 mmHg 91%
19:00 +22°C° 0 mm 0 m/s 716 mmHg 90%
20:00 +22°C° 0 mm 0 m/s 716 mmHg 90%
21:00 +22°C° 0 mm 0 m/s 716 mmHg 90%
22:00 +24°C° 0.5 mm 1 m/s 716 mmHg 91%
23:00 +23°C° 0.5 mm 1 m/s 716 mmHg 92%

26 Outubro, Segunda-feira

Tempo Temperatura Precipitação Vento Pressão Humidade
00:00 +23°C° 0.5 mm 1 m/s 716 mmHg 93%
01:00 +23°C° 0.6 mm 1 m/s 715 mmHg 93%
02:00 +23°C° 0.6 mm 1 m/s 715 mmHg 94%
03:00 +23°C° 0.6 mm 1 m/s 714 mmHg 95%
04:00 +23°C° 0.4 mm 1 m/s 715 mmHg 95%
05:00 +23°C° 0.4 mm 1 m/s 715 mmHg 95%
06:00 +21°C° 0.4 mm 0 m/s 715 mmHg 95%
07:00 +24°C° 0 mm 1 m/s 716 mmHg 92%
08:00 +24°C° 0 mm 1 m/s 716 mmHg 88%
09:00 +25°C° 0 mm 1 m/s 717 mmHg 85%
10:00 +26°C° 0.3 mm 2 m/s 716 mmHg 79%
11:00 +27°C° 0.3 mm 2 m/s 716 mmHg 74%
12:00 +29°C° 0.3 mm 3 m/s 716 mmHg 68%
13:00 +30°C° 0.2 mm 3 m/s 715 mmHg 63%
14:00 +31°C° 0.2 mm 3 m/s 715 mmHg 59%
15:00 +33°C° 0.2 mm 3 m/s 714 mmHg 54%
16:00 +30°C° 1.3 mm 3 m/s 714 mmHg 62%
17:00 +28°C° 1.3 mm 3 m/s 714 mmHg 70%
18:00 +27°C° 1.3 mm 2 m/s 714 mmHg 78%
19:00 +26°C° 0.6 mm 2 m/s 714 mmHg 81%
20:00 +26°C° 0.6 mm 2 m/s 715 mmHg 84%
21:00 +25°C° 0.6 mm 1 m/s 715 mmHg 87%
22:00 +25°C° 0.3 mm 1 m/s 715 mmHg 88%
23:00 +24°C° 0.3 mm 1 m/s 715 mmHg 89%
Mostrar mais